Location: Saint Louis
(38.6270°N, 90.1980°W)
Time: 21:00:30
(UTC-05:00)

ISS - Pass Details

Date: 10 October 2013
Orbit: 400 x 410 km, 51.6° (Epoch: 25 September)

Event Time Altitude Azimuth Distance (km) Brightness Sun altitude
Rises 19:21:05 0° 308° (NW) 2,412 1.5 -10.9°
Reaches altitude 10° 19:25:26 10° 359° (N) 1,579 -0.3 -11.7°
Maximum altitude 19:25:33 10° 1° (N) 1,579 -0.3 -11.8°
Drops below altitude 10° 19:25:41 10° 3° (N) 1,581 -0.4 -11.8°
Enters shadow 19:27:58 - 36° (NE) 1,881 -0.3 -12.2°
